Valdosta, GA

1:59 AM EST on February 11, 2016 (GMT -0500)
Valdosta Regional

Weather History for KVLD - February, 2013

Change the Weather History Date:

Friday, February 1, 2013

  Actual Average Record
Temperature  
Mean Temperature 48 °F 52 °F  
Max Temperature 64 °F 64 °F - ()
Min Temperature 32 °F 39 °F - ()
Degree Days  
Heating Degree Days 17 14  
Month to date heating degree days 17 14  
Since 1 July heating degree days 646 1083  
Moisture  
Dew Point 30 °F    
Average Humidity 55    
Maximum Humidity 85    
Minimum Humidity 25    
Precipitation  
Precipitation 0.00 in 0.05 in - ()
Month to date precipitation 0.00 0.05  
Year to date precipitation 0.76 4.62  
Sea Level Pressure  
Sea Level Pressure 30.34 in    
Wind  
Wind Speed 3 mph (North)    
Max Wind Speed 10 mph    
Max Gust Speed 20 mph    
Visibility 10 miles    
Events      
T = Trace of Precipitation, MM = Missing Value Source: NWS Daily Summary

Daily Weather History Graph

Daily Weather History Graph

Search for Another Location

Airport or City:

Trip Planner

Search our weather history database for the weather conditions in past years. The results will help you decide how hot, cold, wet, or windy it might be!

Date:

Astronomy

Feb. 01, 2013 Rise Set
Actual Time 7:24 AM EST 6:09 PM EST
Civil Twilight 6:59 AM EST 6:34 PM EST
Nautical Twilight 6:30 AM EST 7:03 PM EST
Astronomical Twilight 6:01 AM EST 7:31 PM EST
Moon 11:45 PM EST (2/1) 10:24 AM EST (2/1)
Length of Visible Light 11h 35m
Length of Day
10h 44m
Waning Gibbous, 70% of the Moon is Illuminated
Feb 1
Waning Gibbous
Feb 3
Last Quarter
Feb 10
New
Feb 17
First Quarter
Feb 25
Full

Hourly Weather History & Observations

Time (EST) Temp. Windchill Dew Point Humidity Pressure Visibility Wind Dir Wind Speed Gust Speed Precip Events Conditions
1:53 AM 33.1 °F - 28.9 °F 85% 30.30 in 10.0 mi Calm Calm - N/A   Clear
2:53 AM 33.1 °F - 28.0 °F 82% 30.31 in 10.0 mi Calm Calm - N/A   Clear
3:53 AM 33.1 °F - 28.0 °F 82% 30.31 in 10.0 mi Calm Calm - N/A   Clear
4:53 AM 32.0 °F - 28.0 °F 85% 30.31 in 10.0 mi Calm Calm - N/A   Clear
5:53 AM 33.1 °F - 28.0 °F 82% 30.31 in 10.0 mi Calm Calm - N/A   Clear
6:53 AM 35.1 °F - 30.0 °F 82% 30.32 in 10.0 mi Calm Calm - N/A   Clear
7:53 AM 37.9 °F - 32.0 °F 79% 30.34 in 10.0 mi Calm Calm - N/A   Mostly Cloudy
8:53 AM 48.0 °F - 35.1 °F 61% 30.35 in 10.0 mi Variable 3.5 mph - N/A   Mostly Cloudy
9:53 AM 51.1 °F - 32.0 °F 48% 30.36 in 10.0 mi Variable 5.8 mph - N/A   Mostly Cloudy
10:53 AM 54.0 °F - 33.1 °F 45% 30.37 in 10.0 mi WNW 5.8 mph - N/A   Mostly Cloudy
12:53 PM 59.0 °F - 34.0 °F 39% 30.35 in 10.0 mi Variable 4.6 mph - N/A   Mostly Cloudy
1:53 PM 60.1 °F - 33.1 °F 36% 30.33 in 10.0 mi Variable 6.9 mph - N/A   Mostly Cloudy
3:53 PM 62.1 °F - 30.9 °F 31% 30.31 in 10.0 mi Variable 5.8 mph - N/A   Scattered Clouds
5:53 PM 55.0 °F - 28.0 °F 35% 30.33 in 10.0 mi Variable 3.5 mph - N/A   Clear
6:53 PM 45.0 °F - 30.9 °F 58% 30.34 in 10.0 mi Calm Calm - N/A   Clear
7:53 PM 41.0 °F - 30.9 °F 67% 30.36 in 10.0 mi Calm Calm - N/A   Clear
8:53 PM 37.9 °F - 30.0 °F 73% 30.37 in 10.0 mi Calm Calm - N/A   Clear
9:53 PM 37.0 °F 34.5 °F 28.9 °F 73% 30.37 in 10.0 mi North 3.5 mph - N/A   Clear
10:53 PM 37.9 °F 35.5 °F 26.1 °F 62% 30.38 in 10.0 mi North 3.5 mph - N/A   Clear
11:53 PM 35.1 °F 32.2 °F 23.0 °F 61% 30.39 in 10.0 mi North 3.5 mph - N/A   Clear